GW1200 Weather Reports


time (UTC)temp
C
wind
direction
speed
KPH
gust
KPH
rain 1hr
cm
rain 24hr
cm
rain mn
cm
humidity
%
barometer
mb
20260506005610 21 5 1.6 1.6 0.00 0.00 0.00 76 4245.4
20260506004609 21 307 3.2 3.2 0.00 0.00 0.00 76 4245.6
20260506003608 21 180 4.8 8.0 0.00 0.00 0.00 76 4245.7
20260506002606 22 267 6.4 8.0 0.00 0.00 0.00 75 4245.7
20260506001604 22 224 3.2 8.0 0.00 0.00 0.00 74 4245.8
20260506000559 22 264 3.2 3.2 0.00 0.00 0.00 74 4245.5
20260505235554 22 41 1.6 1.6 0.00 0.00 0.00 73 4245.9
20260505234554 22 62 3.2 3.2 0.00 0.00 0.00 73 4245.7
20260505233554 22 10 0.0 1.6 0.00 0.00 0.00 72 4245.6
20260505232549 22 288 3.2 4.8 0.00 0.00 0.00 72 4245.9
20260505231548 22 282 1.6 3.2 0.00 0.00 0.00 72 4245.7
20260505230544 22 39 1.6 1.6 0.00 0.00 0.00 71 4245.8
20260505225543 22 235 4.8 4.8 0.00 0.00 0.00 71 4246.0
20260505224542 22 267 3.2 4.8 0.00 0.00 0.00 70 4246.1
20260505223542 22 251 4.8 4.8 0.00 0.00 0.00 70 4246.1
20260505222540 22 313 3.2 4.8 0.00 0.00 0.00 70 4246.2
20260505221539 23 311 4.8 4.8 0.00 0.00 0.00 68 4246.2
20260505220539 23 251 4.8 11.3 0.00 0.00 0.00 68 4246.4
20260505215535 23 327 1.6 1.6 0.00 0.00 0.00 68 4246.5
20260505214530 23 331 1.6 1.6 0.00 0.00 0.00 68 4246.5
20260505213530 22 17 0.0 1.6 0.00 0.00 0.00 69 4246.3
20260505212528 22 343 0.0 1.6 0.00 0.00 0.00 70 4246.5
20260505211528 22 349 1.6 1.6 0.00 0.00 0.00 69 4246.7
20260505210528 23 238 4.8 8.0 0.00 0.00 0.00 67 4246.7
20260505205523 23 322 0.0 1.6 0.00 0.00 0.00 68 4246.6
20260505204523 23 297 1.6 1.6 0.00 0.00 0.00 64 4246.7
20260505203523 23 301 1.6 1.6 0.00 0.00 0.00 65 4246.8
20260505202522 22 15 0.0 1.6 0.00 0.00 0.00 68 4246.9
20260505201521 22 45 1.6 1.6 0.00 0.00 0.00 67 4247.4
20260505200516 22 177 3.2 3.2 0.00 0.00 0.00 67 4247.2
20260505195515 22 251 3.2 4.8 0.00 0.00 0.00 66 4247.1
20260505194510 23 353 1.6 1.6 0.00 0.00 0.00 65 4246.9
20260505193507 23 8 3.2 4.8 0.00 0.00 0.00 62 4247.4
20260505192503 23 34 3.2 3.2 0.00 0.00 0.00 63 4247.1
20260505191458 23 243 1.6 3.2 0.00 0.00 0.00 65 4247.8
20260505190456 23 343 1.6 1.6 0.00 0.00 0.00 67 4247.8
20260505185455 23 349 0.0 1.6 0.00 0.00 0.00 71 4247.9
20260505184454 22 303 0.0 1.6 0.00 0.00 0.00 74 4248.0
20260505183454 21 282 0.0 1.6 0.00 0.00 0.00 78 4248.1
20260505182453 21 216 1.6 1.6 0.00 0.00 0.00 80 4248.0
20260505181453 21 356 0.0 1.6 0.00 0.00 0.00 81 4248.2
20260505180452 20 305 0.0 0.0 0.00 0.00 0.00 79 4248.3
20260505175450 20 250 0.0 1.6 0.00 0.00 0.00 76 4248.8
20260505174451 21 267 1.6 1.6 0.00 0.00 0.00 76 4248.8
20260505173449 21 326 0.0 0.0 0.00 0.00 0.00 71 4249.0
20260505172445 21 236 1.6 3.2 0.00 0.00 0.00 67 4249.5
20260505171441 22 144 3.2 4.8 0.00 0.00 0.00 64 4249.5
20260505170440 22 293 0.0 1.6 0.00 0.00 0.00 63 4249.8
20260505165437 22 268 4.8 4.8 0.00 0.00 0.00 60 4249.5
20260505164436 23 110 4.8 4.8 0.00 0.00 0.00 57 4249.4
20260505163432 23 238 8.0 11.3 0.00 0.00 0.00 56 4249.3
20260505162432 24 308 1.6 3.2 0.00 0.00 0.00 56 4249.7
20260505161432 24 241 6.4 9.7 0.00 0.00 0.00 55 4249.9
20260505160428 24 47 4.8 4.8 0.00 0.00 0.00 59 4250.0
20260505152425 23 272 4.8 9.7 0.00 0.00 0.00 62 4249.6
20260505151421 23 33 4.8 4.8 0.00 0.00 0.00 62 4249.4
20260505150421 22 234 1.6 3.2 0.00 0.00 0.00 65 4249.7
20260505140409 20 265 3.2 3.2 0.00 0.00 0.00 71 4249.3
20260505124355 17 243 1.6 3.2 0.00 0.00 0.00 75 4249.2
20260505123352 18 19 1.6 1.6 0.00 0.00 0.00 74 4249.1
20260505122352 17 255 3.2 3.2 0.00 0.00 0.00 75 4248.9
20260505121351 17 254 0.0 1.6 0.00 0.00 0.00 75 4248.8
20260505120349 16 270 0.0 0.0 0.00 0.00 0.00 78 4248.6
20260505115345 16 244 1.6 3.2 0.00 0.00 0.00 76 4248.6
20260505114345 16 285 0.0 0.0 0.00 0.00 0.00 78 4248.5
20260505113344 15 266 0.0 0.0 0.00 0.00 0.00 81 4248.4
20260505112343 15 261 0.0 1.6 0.00 0.00 0.00 81 4248.3
20260505111340 15 346 0.0 0.0 0.00 0.00 0.00 80 4248.4
20260505110340 15 253 1.6 1.6 0.00 0.00 0.00 79 4248.0
20260505101333 15 243 1.6 3.2 0.00 0.00 0.00 79 4247.4
20260505100332 15 252 3.2 3.2 0.00 0.00 0.00 78 4247.4
20260505095331 16 237 6.4 8.0 0.00 0.00 0.00 77 4247.2
20260505094330 16 251 3.2 3.2 0.00 0.00 0.00 76 4247.2
20260505093329 16 253 4.8 8.0 0.00 0.00 0.00 76 4247.3
20260505092324 16 244 3.2 3.2 0.00 0.00 0.00 75 4247.2
20260505091319 16 242 4.8 8.0 0.00 0.00 0.00 74 4247.1
20260505090315 16 197 4.8 4.8 0.00 0.00 0.00 74 4247.1
20260505085310 16 231 3.2 4.8 0.00 0.00 0.00 73 4247.3
20260505084306 16 225 1.6 1.6 0.00 0.00 0.00 73 4247.1
20260505083306 16 246 1.6 3.2 0.00 0.00 0.00 73 4247.2
20260505082305 16 272 1.6 1.6 0.00 0.00 0.00 73 4247.3
20260505081304 16 254 1.6 1.6 0.00 0.00 0.00 74 4247.2
20260505080302 16 247 1.6 1.6 0.00 0.00 0.00 74 4247.4
20260505075301 16 270 1.6 1.6 0.00 0.00 0.00 73 4247.6
20260505074301 16 250 1.6 3.2 0.00 0.00 0.00 72 4247.7
20260505073256 17 335 0.0 0.0 0.00 0.00 0.00 71 4247.9
20260505072255 17 246 3.2 3.2 0.00 0.00 0.00 71 4248.1
20260505071253 17 285 1.6 3.2 0.00 0.00 0.00 71 4247.9
20260505070253 17 255 1.6 3.2 0.00 0.00 0.00 70 4248.0
20260505065251 17 257 3.2 9.7 0.00 0.00 0.00 69 4248.3
20260505064246 17 272 3.2 3.2 0.00 0.00 0.00 69 4248.1
20260505063246 17 228 1.6 1.6 0.00 0.00 0.00 69 4247.9
20260505062246 17 299 0.0 0.0 0.00 0.00 0.00 69 4248.1
20260505061240 17 237 1.6 8.0 0.00 0.00 0.00 69 4248.2
20260505060241 17 252 3.2 3.2 0.00 0.00 0.00 69 4248.5
20260505055238 17 246 3.2 3.2 0.00 0.00 0.00 69 4248.6
20260505054233 17 250 1.6 3.2 0.00 0.00 0.00 70 4248.6
20260505053233 17 244 1.6 1.6 0.00 0.00 0.00 70 4248.6
20260505052233 17 242 1.6 1.6 0.00 0.00 0.00 67 4248.7
20260505051228 18 242 1.6 3.2 0.00 0.00 0.00 67 4248.5
20260505050224 18 240 3.2 3.2 0.00 0.00 0.00 64 4248.6
20260505041220 19 255 1.6 3.2 0.00 0.00 0.00 61 4248.2
20260505040220 19 85 1.6 1.6 0.00 0.00 0.00 62 4248.5
20260505035218 19 232 1.6 3.2 0.00 0.00 0.00 61 4248.5
20260505034218 20 207 3.2 8.0 0.00 0.00 0.00 61 4248.2
20260505033213 20 184 0.0 1.6 0.00 0.00 0.00 60 4248.3
20260505032212 20 161 1.6 1.6 0.00 0.00 0.00 60 4248.4
20260505031212 20 273 0.0 1.6 0.00 0.00 0.00 60 4248.1
20260505030210 20 184 0.0 1.6 0.00 0.00 0.00 62 4248.3
20260505025205 20 186 1.6 1.6 0.00 0.00 0.00 62 4247.9
20260505024205 20 178 0.0 1.6 0.00 0.00 0.00 61 4248.1
20260505023200 20 184 0.0 1.6 0.00 0.00 0.00 61 4248.1
20260505022200 20 184 0.0 0.0 0.00 0.00 0.00 60 4248.1
20260505021159 20 174 0.0 0.0 0.00 0.00 0.00 60 4247.9
20260505020156 20 181 0.0 0.0 0.00 0.00 0.00 60 4247.9
20260505015156 20 186 0.0 1.6 0.00 0.00 0.00 62 4247.9
20260505014156 19 175 0.0 0.0 0.00 0.00 0.00 63 4247.9
20260505013156 20 181 0.0 1.6 0.00 0.00 0.00 64 4247.6
20260505012152 20 187 0.0 1.6 0.00 0.00 0.00 63 4247.7
20260505011149 20 187 1.6 1.6 0.00 0.00 0.00 60 4248.0
20260505010148 20 188 0.0 0.0 0.00 0.00 0.00 60 4247.9